Wind_Speed
30 31 30 30 30 30 30 29 28 29 29 29 29 29 31 32 33 35 36 38 39 39 40 41 42 41 41 41 40 40 40 40 39 40 40 40 40 40 40 40 40 39 39 38 38 37 37 37 37 37 37 37 37 38 38 39 39 40 41 41 41 40 38 35 32 31 32 35 37 38 39 39 39 39 39 39 39 39 38 39 39 39 39 38 37 36
32 32 32 32 32 31 32 31 31 30 31 31 30 30 31 31 32 32 33 33 34 35 35 37 38 39 39 40 41 41 41 41 42 42 42 43 43 43 43 43 43 43 42 42 41 41 40 40 40 40 40 40 40 40 41 41 41 41 41 40 39 38 36 34 32 32 34 36 38 39 40 40 40 40 39 39 39 39 39 39 40 40 40 40 39 38
33 33 33 33 33 33 33 33 33 33 33 33 33 32 32 33 33 33 33 33 33 33 33 34 34 34 35 35 36 36 37 38 39 41 42 43 44 45 45 45 45 45 45 45 44 44 43 43 43 43 42 42 42 41 41 41 41 41 40 39 37 36 34 34 33 34 36 38 39 40 40 41 41 41 40 39 39 39 39 40 40 41 41 41 40 40
32 33 33 34 34 34 34 34 34 35 34 34 34 34 34 34 34 34 34 34 34 34 34 34 34 34 34 34 34 33 33 34 35 36 37 39 40 41 42 43 44 44 45 45 45 45 45 45 45 45 44 44 43 42 41 40 39 39 38 38 36 35 35 35 36 37 39 40 41 41 41 41 41 41 40 40 39 39 39 39 40 41 42 42 42 41
32 32 33 34 34 35 35 35 35 35 36 36 36 35 35 35 35 35 34 34 34 34 34 34 34 35 35 35 35 35 34 34 34 34 34 35 35 36 37 37 38 39 40 41 41 42 42 42 43 43 43 42 42 41 40 39 38 38 38 38 37 37 37 37 38 39 40 41 42 42 41 41 41 41 40 39 39 38 38 39 40 41 41 42 42 42
32 32 33 33 34 35 35 36 36 36 36 36 36 36 36 36 36 35 35 35 35 35 35 34 34 34 35 35 35 35 35 35 35 35 35 35 35 35 35 36 36 36 37 37 37 37 38 38 38 38 38 37 37 36 36 36 36 37 37 37 37 38 38 39 39 40 41 42 42 41 41 40 40 40 40 39 38 38 38 38 39 40 40 41 42 42
33 33 33 33 34 35 35 35 35 35 35 36 36 36 36 36 36 35 36 36 36 36 36 36 36 35 35 35 35 35 35 35 35 35 35 35 35 36 36 36 37 37 37 37 37 37 37 36 36 36 35 34 34 34 34 35 35 36 36 37 37 38 38 38 39 40 40 41 40 40 39 39 39 39 38 38 38 38 37 38 38 39 39 40 41 42
33 34 33 33 34 35 35 35 34 34 34 34 35 36 36 36 36 35 35 35 36 36 36 37 37 36 36 35 35 35 35 35 35 35 35 35 35 35 36 36 36 37 37 37 37 37 37 37 36 36 35 34 34 34 35 35 36 36 37 38 38 38 38 38 39 39 39 39 39 38 38 38 37 37 37 38 38 38 38 38 38 38 39 40 41 42
32 33 34 34 33 34 35 35 34 33 32 32 33 34 35 35 36 36 35 35 35 35 35 36 36 37 36 36 35 35 35 35 35 35 35 35 35 35 36 36 36 37 37 37 37 37 37 37 37 36 36 36 36 36 37 37 37 38 38 39 39 39 39 39 39 39 38 38 38 37 37 37 37 37 37 37 37 38 38 38 38 39 39 40 41 42
32 33 34 34 33 33 32 33 33 32 31 31 31 31 32 33 34 35 35 34 33 33 33 33 34 35 35 35 35 34 34 34 33 33 33 33 34 34 35 35 36 36 37 37 37 38 38 38 38 38 38 38 38 38 38 39 39 40 40 40 40 40 40 40 40 39 39 38 38 37 37 37 37 37 37 37 38 38 38 38 39 39 39 40 41 42
32 32 32 32 32 31 30 30 31 31 31 30 30 30 30 29 30 31 32 33 33 32 31 31 31 31 32 33 33 33 33 32 32 31 31 30 30 31 31 32 33 34 35 36 36 36 37 37 37 37 38 38 38 39 39 40 40 41 41 41 41 41 41 41 41 40 40 39 39 38 38 38 38 38 38 38 38 39 39 39 39 40 40 41 41 42
31 31 30 30 29 29 28 28 28 29 29 29 29 29 29 28 27 28 29 31 31 31 30 30 29 29 29 30 30 30 30 30 30 29 28 28 27 27 27 28 29 30 31 32 32 33 33 34 34 35 35 36 37 37 38 39 39 40 41 41 41 41 41 41 41 41 40 40 40 39 39 39 39 39 39 39 40 40 40 40 40 41 41 41 42 43
28 28 27 27 26 26 26 26 26 27 26 26 27 27 28 27 26 26 26 28 29 29 30 30 30 30 29 29 28 28 28 28 28 27 27 26 26 25 25 25 25 26 26 27 28 29 29 29 30 31 31 32 33 34 34 36 37 38 38 39 40 40 40 40 40 40 40 40 40 40 40 40 40 40 40 41 41 41 41 41 41 42 42 42 43 43
25 25 24 24 24 23 24 24 25 25 25 25 25 26 26 26 25 25 26 27 28 29 29 31 32 32 31 29 28 27 27 27 27 27 27 26 26 25 26 26 26 26 26 26 26 26 26 26 26 27 27 28 29 30 31 32 33 35 36 36 37 37 38 38 38 39 39 39 39 39 39 40 40 40 40 41 41 41 42 42 42 43 43 43 44 44
23 23 23 23 22 22 22 23 24 25 25 25 25 24 24 24 24 24 26 28 29 30 31 32 33 33 31 28 26 26 26 27 28 29 29 29 28 27 27 28 28 28 27 27 27 27 25 25 25 25 25 26 26 27 28 29 31 32 33 34 35 36 36 37 37 38 38 38 39 39 39 39 39 39 40 40 40 41 42 42 43 43 44 44 45 45
22 22 22 22 22 22 22 22 24 25 26 25 24 24 24 24 25 25 26 28 30 31 30 30 31 31 29 26 25 25 26 27 29 31 32 33 31 30 29 30 31 31 30 29 29 28 26 26 25 25 25 25 25 25 26 27 28 30 31 32 33 34 35 35 36 36 37 37 38 38 38 38 38 39 39 39 39 40 41 41 42 43 44 44 45 46
21 21 21 21 22 22 22 23 24 25 25 25 24 24 24 25 26 27 28 29 30 30 29 28 28 28 28 27 26 25 26 28 30 32 34 35 34 32 31 32 33 33 32 31 30 29 27 26 26 25 25 25 24 24 25 26 27 28 29 30 31 32 33 33 34 35 35 36 36 37 37 37 37 37 38 38 38 39 39 40 41 42 43 44 44 45
20 20 20 20 21 22 23 23 24 24 24 25 25 25 25 25 26 28 29 30 30 31 30 29 28 27 27 28 28 28 29 31 33 34 35 37 36 34 32 32 32 33 33 32 30 29 27 27 27 26 26 26 26 26 27 27 27 28 28 28 29 29 29 30 31 31 32 33 34 34 34 35 35 35 36 36 37 37 38 39 39 40 41 42 43 44
20 20 20 21 21 22 23 23 23 23 24 24 25 26 27 27 27 28 29 30 30 31 31 31 30 29 28 29 30 31 32 33 35 36 36 37 37 35 32 31 31 32 32 32 31 29 29 29 29 29 29 30 30 30 30 29 28 28 27 27 27 26 26 27 27 28 29 29 30 31 31 31 31 32 32 33 34 34 35 36 37 38 39 40 41 42
22 22 22 23 24 24 25 25 24 24 25 25 26 27 28 29 29 29 30 30 30 30 30 30 30 30 29 30 31 32 33 34 35 36 35 36 36 34 31 30 30 31 31 31 30 30 31 32 33 34 34 34 34 33 32 30 29 28 27 27 26 26 25 25 25 26 26 27 27 27 27 27 28 28 28 29 30 31 32 33 34 35 36 37 38 39
25 25 25 25 26 26 27 27 27 27 27 27 27 28 29 29 30 30 30 30 29 29 29 29 29 30 29 31 33 34 34 34 34 34 34 34 35 34 30 28 28 28 29 29 30 31 33 35 37 38 38 38 36 35 33 30 28 27 26 26 26 26 25 25 25 25 25 25 25 25 25 24 24 25 25 26 27 28 29 30 32 33 34 35 36 37
26 27 27 27 27 27 27 28 28 27 27 26 26 27 28 28 29 29 29 28 28 28 28 29 30 32 33 35 37 38 37 35 34 33 33 33 33 32 28 25 25 27 28 30 31 33 34 36 38 39 39 38 37 34 31 28 26 24 24 24 25 25 25 24 24 24 24 23 23 23 23 22 22 22 23 24 25 26 27 28 29 30 31 32 33 34
27 28 28 27 26 25 25 26 26 25 25 23 24 25 26 27 28 28 28 28 28 30 31 33 35 37 39 40 41 41 39 35 32 29 29 30 30 29 26 25 26 29 30 31 32 34 35 36 37 38 38 38 36 33 30 26 24 22 21 21 21 22 22 22 23 23 22 22 22 21 21 21 20 21 21 22 23 24 25 26 27 27 28 29 30 31
27 27 27 25 24 23 23 23 23 24 24 24 25 26 26 27 28 29 30 31 32 34 36 38 39 40 40 40 39 37 34 30 27 26 26 27 28 28 27 26 28 31 33 33 33 33 35 35 36 37 37 37 35 33 29 26 23 22 21 21 21 21 21 21 21 21 21 21 21 21 21 20 20 21 21 22 22 23 23 24 24 24 25 25 26 28
27 27 26 26 25 25 24 25 25 26 27 27 28 29 30 31 32 33 34 35 36 37 37 38 37 36 35 33 31 29 27 25 24 24 24 26 29 30 28 27 28 30 32 31 31 32 34 36 37 37 36 36 35 32 30 27 26 25 25 25 25 25 24 24 23 23 22 22 22 22 22 22 22 22 22 22 22 22 22 22 22 22 23 24 25 26
27 27 28 28 28 27 27 27 28 28 28 28 28 29 30 31 32 33 34 34 33 33 32 31 30 30 30 29 28 26 24 22 21 21 23 27 29 30 28 27 28 30 31 31 31 32 34 35 34 34 34 35 34 32 30 29 28 28 28 29 29 28 27 27 26 25 24 24 24 24 24 25 25 25 25 24 24 23 23 22 22 23 23 24 25 27
28 28 28 28 28 28 28 28 28 28 28 27 27 27 27 28 29 30 29 29 28 27 26 26 26 27 28 28 26 25 24 23 22 22 24 27 30 31 29 28 29 31 32 31 31 31 32 32 32 33 34 34 33 30 29 28 28 28 29 29 28 28 27 26 26 25 25 25 25 25 25 26 26 27 27 26 25 24 24 23 24 24 25 26 27 28
27 27 27 27 28 28 28 28 28 27 27 26 26 25 25 25 26 26 25 25 25 25 24 24 25 26 27 26 26 26 26 26 26 25 23 24 27 28 28 27 28 29 29 30 30 31 32 32 33 33 33 31 28 27 27 27 27 27 27 27 27 26 26 25 25 26 26 26 26 27 27 28 29 29 28 27 26 26 25 25 25 25 26 27 28 29
26 26 26 26 27 27 27 27 26 26 25 25 24 23 23 23 23 23 23 24 24 24 23 23 24 25 25 26 27 27 26 25 24 21 18 20 23 25 25 26 26 26 26 28 31 32 31 30 29 28 27 25 24 25 26 26 26 27 27 28 28 28 28 28 28 29 29 30 30 31 32 32 32 31 30 28 27 26 25 25 25 26 27 27 28 28
26 26 26 25 25 25 25 25 25 24 24 23 23 22 22 21 20 20 21 21 21 21 21 21 22 23 24 25 25 25 23 20 17 15 16 19 22 24 25 25 26 25 24 26 28 28 27 26 25 24 23 23 24 25 26 27 27 28 30 31 33 33 34 34 34 35 35 35 35 35 35 34 33 32 30 29 27 26 26 25 25 25 26 27 27 26
27 26 26 25 24 24 24 24 24 24 23 23 22 21 20 19 18 18 18 18 18 18 19 20 21 21 22 23 23 22 21 22 20 19 20 22 23 24 24 24 24 24 23 23 24 25 26 27 27 26 25 25 26 28 30 31 32 33 34 35 37 37 37 37 37 37 36 36 35 35 34 33 32 30 29 28 27 26 26 25 25 25 26 26 26 26
26 26 26 25 25 25 24 24 24 24 23 22 21 20 19 18 17 16 16 15 16 16 18 20 21 22 23 24 24 25 26 27 25 22 21 21 22 23 24 25 26 26 25 26 26 26 27 29 30 31 30 29 30 31 33 34 35 35 35 35 36 36 36 35 34 34 34 33 32 32 31 30 29 28 28 27 27 27 26 26 26 26 27 27 28 28
26 26 26 26 26 25 25 24 24 23 23 22 20 19 18 17 16 16 15 15 15 16 18 20 22 24 25 26 27 28 28 26 23 21 21 23 25 27 28 29 30 30 30 30 30 30 30 32 34 35 35 34 33 33 33 33 33 32 32 32 33 33 33 33 32 32 32 31 30 30 30 30 29 29 29 28 28 29 29 28 28 28 29 30 32 33
27 27 27 26 26 25 25 24 23 22 22 21 20 20 19 19 19 18 18 18 18 19 20 21 23 25 26 26 27 28 29 29 27 27 27 28 31 33 34 33 33 33 32 32 31 31 32 34 35 34 34 35 34 32 31 31 31 31 30 30 31 31 31 31 30 31 31 31 31 31 31 31 31 31 31 31 31 31 32 32 31 31 32 33 34 35
27 26 26 26 25 25 24 23 22 21 21 21 21 21 21 21 21 21 21 21 22 22 23 24 25 26 28 29 31 33 35 34 32 31 31 32 34 35 37 37 35 33 33 32 32 32 32 34 34 34 33 34 35 34 31 30 29 29 29 29 29 29 30 30 30 30 31 32 32 33 33 33 33 33 34 34 34 34 34 34 34 34 34 34 34 34
26 25 25 25 24 24 23 22 22 21 21 21 22 22 22 22 22 23 23 23 24 24 25 26 26 27 29 31 33 35 37 36 34 33 33 34 35 35 35 37 36 34 32 32 31 31 32 33 34 34 34 34 34 34 32 30 29 28 28 29 30 30 31 31 31 31 32 33 34 35 35 35 35 35 35 35 36 36 36 35 35 34 34 33 32 32
24 24 24 23 23 23 23 23 22 22 22 22 22 22 22 23 23 23 23 24 24 24 25 25 26 26 27 28 30 32 33 33 32 32 32 32 32 32 33 34 34 32 30 30 30 31 31 32 33 33 33 32 32 32 31 31 30 30 31 31 32 32 33 33 33 33 34 35 35 36 35 35 35 35 35 35 35 35 35 34 33 32 32 31 31 30
23 23 23 23 23 24 24 24 23 23 23 22 22 22 23 23 23 23 23 23 23 23 23 23 24 24 25 25 26 27 28 28 28 28 27 27 27 28 29 30 31 31 30 30 30 30 30 31 31 32 32 32 33 33 32 32 32 32 33 33 33 34 34 34 34 34 34 34 35 35 36 36 36 36 36 36 36 35 35 33 31 30 29 29 29 29
23 23 23 23 24 24 24 24 24 23 23 22 22 23 23 23 23 23 23 22 22 22 22 22 22 23 23 23 23 24 24 24 24 24 23 23 23 23 25 27 28 29 28 28 28 28 29 31 32 33 33 34 35 35 33 32 31 31 33 34 35 35 35 34 33 32 33 33 34 36 37 37 37 37 37 37 36 35 34 32 30 28 27 27 27 27
23 23 24 24 23 23 24 24 24 23 23 23 23 23 23 24 24 24 24 23 23 23 23 23 23 23 23 23 23 23 23 23 23 22 22 21 21 21 22 24 26 26 26 26 27 29 31 32 33 34 33 35 35 35 35 34 34 33 33 34 35 35 34 33 32 32 33 34 36 37 38 38 38 38 37 36 35 34 33 31 29 28 27 27 27 28
23 24 24 24 24 23 23 24 24 24 24 24 24 24 24 25 25 25 25 25 25 25 25 25 25 24 24 24 23 23 24 24 23 23 22 22 21 21 21 22 23 23 24 26 28 30 32 33 34 35 36 37 36 36 37 38 37 35 33 33 35 37 37 37 35 35 35 36 36 36 36 36 36 36 35 35 34 33 32 31 30 29 29 29 29 29
23 24 24 24 24 24 24 24 24 24 24 25 25 25 25 25 26 26 26 26 26 25 25 25 26 26 26 25 24 24 24 24 24 23 23 22 22 21 21 21 21 22 23 25 28 30 32 33 34 35 36 37 37 37 39 40 39 36 33 34 36 38 39 39 37 34 32 33 33 33 33 34 34 35 35 35 34 33 32 31 31 31 31 31 31 32
24 24 24 25 25 25 25 25 25 25 25 25 25 25 25 25 25 25 26 26 26 26 26 26 26 27 28 27 26 25 24 24 24 24 24 23 23 22 21 21 21 21 22 24 27 29 30 31 33 34 35 36 36 36 38 39 39 37 34 34 34 34 34 36 36 33 31 32 33 34 34 34 34 34 34 34 34 33 33 33 32 32 32 32 33 33
24 24 24 25 25 25 25 25 25 25 25 25 26 26 25 25 25 25 25 26 26 26 26 27 27 28 29 30 30 29 27 26 25 24 24 24 23 23 22 22 21 21 21 23 25 28 29 30 32 32 33 33 34 34 36 38 38 37 35 35 34 34 35 37 37 36 34 34 35 34 34 34 34 34 34 35 35 35 34 34 34 33 33 33 33 33
25 25 25 25 25 26 26 25 25 25 25 25 26 26 25 25 25 25 25 26 27 27 27 27 28 29 30 31 31 31 30 29 27 26 25 24 23 23 22 22 22 21 21 22 23 25 27 29 30 31 31 31 32 34 36 37 37 37 36 36 36 36 37 38 37 36 34 35 35 34 34 33 33 33 34 35 36 36 36 35 35 35 35 34 33 33
25 26 26 26 25 26 25 25 25 26 26 26 26 26 25 25 25 25 25 26 27 28 28 27 28 28 30 31 31 31 32 31 30 29 27 26 25 24 23 23 22 22 22 22 22 23 24 26 28 29 29 30 32 33 34 35 36 37 37 37 37 36 36 36 36 35 35 34 34 33 32 31 31 32 33 35 36 36 35 36 35 35 35 35 34 34
26 26 26 26 26 26 25 25 26 26 26 27 26 26 26 26 26 26 26 26 27 28 28 28 28 28 29 30 30 31 31 32 32 31 29 28 26 25 25 24 24 24 24 24 25 25 26 26 27 28 29 31 33 34 34 34 34 35 36 36 35 35 36 36 35 34 32 32 31 30 29 29 29 31 33 34 35 35 35 35 35 35 35 35 34 34
25 25 25 25 26 26 26 26 26 26 27 27 27 27 26 26 26 26 27 27 27 27 28 28 28 28 29 30 30 29 30 31 32 32 31 29 28 27 26 26 26 26 27 27 28 29 29 29 29 29 28 29 31 33 33 33 33 33 33 34 34 34 35 35 34 32 31 30 30 29 28 28 29 30 31 32 33 34 34 34 34 34 34 34 34 34
25 25 25 26 26 26 26 26 26 26 27 27 28 27 27 26 26 26 27 27 27 27 27 27 28 29 30 30 30 30 30 30 31 31 31 30 29 29 28 28 28 29 30 30 31 31 32 32 31 30 29 27 28 29 31 31 31 31 31 32 32 33 34 34 33 32 31 31 30 28 28 27 28 28 29 31 33 34 34 34 34 34 34 34 34 34
25 25 25 25 26 26 26 26 26 27 27 27 28 28 28 27 27 27 27 27 27 27 27 27 28 29 30 31 31 31 30 30 31 31 31 30 30 30 30 30 30 31 32 33 33 32 32 32 32 31 29 26 25 26 28 29 29 29 30 30 31 32 32 33 33 32 31 31 30 29 29 29 29 29 30 31 33 35 35 35 35 35 34 33 33 33
25 25 25 25 26 26 26 26 26 27 27 27 28 28 29 29 28 28 27 27 27 27 27 27 28 29 30 31 31 31 30 30 31 31 31 31 30 30 31 31 32 32 32 33 33 32 31 30 30 30 29 26 24 23 24 26 27 28 30 30 31 31 32 32 33 32 31 31 31 31 31 31 31 31 32 32 34 35 36 37 37 36 34 33 32 32
Wind_Direction
297 298 298 298 298 297 297 296 295 294 293 291 290 289 288 287 286 286 286 286 287 288 288 288 287 287 286 286 285 284 284 283 282 282 281 281 281 282 282 283 283 284 284 285 285 286 286 285 285 284 282 280 278 275 272 270 268 267 265 264 264 263 263 265 271 279 285 287 286 286 286 286 286 286 286 286 286 286 285 284 283 282 282 281 279 277
297 298 299 299 298 298 297 297 296 296 295 295 294 293 293 292 292 291 291 291 291 291 291 291 290 290 289 288 287 286 285 285 284 283 282 281 281 281 281 282 282 283 284 284 285 286 286 286 286 286 285 284 283 281 280 277 275 273 271 269 268 268 270 273 278 283 286 285 284 283 283 284 284 284 284 284 284 283 283 282 281 281 280 279 278 276
298 299 299 299 299 299 299 298 298 297 297 297 297 296 296 295 295 295 295 295 295 295 295 294 294 293 291 290 289 288 287 286 286 285 284 283 282 281 281 282 282 282 282 282 283 283 283 284 284 285 285 285 285 285 284 283 282 279 278 276 276 278 280 282 284 285 284 283 282 281 281 282 282 283 283 282 282 281 280 280 279 279 278 278 277 276
298 299 298 299 299 299 299 300 300 299 299 299 299 298 298 297 297 296 296 296 295 295 295 295 295 294 293 292 291 290 289 288 287 286 286 285 285 284 284 284 284 284 284 284 283 283 283 283 283 283 283 284 284 285 285 285 284 283 281 280 279 280 280 281 281 281 281 281 280 279 279 279 280 280 280 280 280 279 278 278 277 277 277 276 276 275
298 298 298 299 299 299 299 300 300 300 300 300 299 299 299 298 298 297 296 296 295 294 293 293 293 293 292 292 292 291 291 290 289 288 288 288 288 287 287 287 287 286 286 286 286 285 285 284 284 283 283 283 284 284 285 284 284 283 282 280 279 278 277 277 278 278 279 279 279 279 278 278 278 278 278 278 278 277 276 275 275 275 275 275 275 274
297 298 298 299 300 299 300 300 300 300 301 300 299 299 299 298 298 297 297 296 295 294 293 292 291 291 290 290 290 290 289 289 288 288 288 288 288 288 288 288 288 288 287 287 286 286 285 285 284 284 284 283 283 283 282 282 281 281 280 279 278 277 277 276 276 277 277 277 277 277 277 277 277 276 276 276 276 275 274 273 273 273 273 274 274 274
297 297 298 299 299 299 300 300 301 301 302 301 300 299 298 298 298 297 297 297 296 295 294 292 291 290 290 289 288 288 287 287 286 286 285 285 285 285 286 286 286 286 286 285 285 285 284 284 284 284 283 282 281 280 279 278 277 277 277 276 276 275 275 275 275 275 275 275 275 275 275 275 275 275 275 275 274 274 273 271 271 270 271 271 272 273
296 297 297 298 299 300 300 301 302 302 303 303 302 302 301 300 299 299 298 297 296 295 294 293 292 290 290 289 288 287 286 285 285 284 284 283 283 282 282 282 282 282 281 281 281 281 281 281 281 280 280 279 277 276 275 275 274 274 274 274 273 273 273 272 272 272 272 272 272 272 272 272 272 272 273 273 273 272 271 270 269 269 269 269 270 271
296 297 298 299 300 302 303 303 303 303 304 305 305 305 305 304 303 301 300 298 297 296 295 293 292 291 289 288 288 287 286 286 285 285 284 283 282 281 280 279 279 278 278 277 277 277 277 276 276 276 275 274 274 273 273 273 273 273 272 272 272 272 271 271 271 270 270 270 269 269 269 269 269 269 269 269 270 269 269 269 269 268 268 268 269 269
296 298 299 301 302 303 305 306 305 305 306 307 307 307 308 307 307 305 303 301 299 298 297 295 294 293 291 290 289 289 288 287 286 285 285 284 282 281 280 279 277 277 276 275 275 274 274 274 273 273 273 272 272 272 272 272 272 272 272 272 272 271 271 270 270 269 269 268 268 267 267 267 267 266 266 266 266 266 266 267 267 267 267 267 268 268
299 300 302 303 305 306 306 307 308 309 309 309 309 309 310 311 311 311 309 306 304 302 301 300 299 298 297 295 294 293 292 291 290 288 287 286 284 283 281 279 278 277 276 275 274 274 274 273 273 273 272 272 272 272 272 271 271 271 271 271 271 271 271 270 270 269 269 268 267 267 266 265 265 264 263 263 263 263 263 264 265 266 266 267 267 268
303 304 306 307 308 309 309 309 310 312 313 313 314 314 315 315 316 316 314 312 311 310 309 308 306 305 304 304 303 301 299 298 297 296 294 293 291 289 286 283 280 278 276 275 274 274 274 274 273 273 273 273 272 272 272 272 271 271 271 271 271 271 271 271 270 270 269 268 267 266 265 264 263 263 262 261 261 261 261 262 263 264 264 265 266 267
307 309 310 310 310 311 311 312 313 315 316 317 318 318 319 320 321 320 317 315 315 316 316 314 313 311 310 310 310 311 310 308 307 305 304 303 302 300 297 293 288 284 281 278 276 275 274 274 274 274 274 274 274 273 273 273 272 272 272 271 271 271 271 271 270 269 269 268 267 266 265 264 263 262 261 261 260 260 260 260 261 262 263 264 264 265
311 312 312 312 312 312 313 314 315 316 318 320 321 322 322 322 322 321 319 317 316 317 318 318 317 316 316 315 316 317 318 317 316 314 312 311 311 310 307 303 298 294 290 285 282 279 277 277 276 276 276 276 276 276 276 275 274 273 273 272 272 271 271 271 270 269 269 268 267 266 265 264 263 262 262 261 260 260 260 260 260 260 261 262 263 264
314 314 314 313 312 313 314 315 316 318 319 322 324 324 323 322 322 321 320 318 318 319 321 320 319 318 316 316 318 320 321 321 321 319 318 316 314 313 312 307 303 299 296 292 288 285 283 281 280 280 280 279 280 280 280 279 278 276 275 273 272 272 271 271 270 269 269 268 267 267 266 265 264 263 263 262 261 261 260 260 260 260 260 261 261 262
315 315 314 313 312 312 313 316 318 320 323 326 326 326 325 323 323 323 321 320 320 321 320 318 317 316 315 314 316 319 321 321 320 320 318 316 314 313 314 310 306 303 300 296 293 290 288 285 284 283 282 282 283 284 286 285 283 281 278 276 274 272 272 271 271 270 270 269 269 268 268 267 266 265 265 264 263 262 262 261 260 260 260 260 261 262
316 316 315 314 312 312 314 318 322 324 326 327 327 327 326 324 324 323 322 320 320 319 315 314 312 311 311 312 313 315 319 319 318 317 316 314 312 312 313 310 307 305 304 301 298 296 294 291 288 286 285 285 287 290 292 292 290 287 283 279 276 274 272 272 271 271 271 271 270 270 269 269 268 267 267 266 265 264 263 262 261 261 260 260 261 261
316 317 317 316 314 314 316 320 323 324 325 325 325 324 322 321 321 321 320 319 317 314 311 309 306 305 306 308 309 312 316 316 314 313 312 310 309 310 312 310 308 306 306 304 302 300 299 296 294 292 291 291 292 294 296 296 294 290 285 281 277 274 273 273 272 272 272 272 272 271 271 271 270 269 268 267 266 265 264 263 262 261 261 261 261 261
310 311 312 313 312 312 313 315 317 318 319 319 318 317 315 314 315 316 315 315 314 312 309 306 303 302 302 304 307 310 314 314 312 310 308 307 307 308 308 308 307 305 305 304 304 303 302 300 298 297 296 296 296 297 298 297 295 290 284 279 276 274 274 274 274 274 273 273 273 272 272 272 271 270 269 269 268 267 265 264 263 262 261 261 261 261
307 307 306 306 307 307 306 306 307 308 308 309 309 309 309 310 310 311 310 311 311 311 309 306 304 303 303 304 306 308 310 311 310 307 304 303 303 304 304 304 303 302 301 301 302 302 303 302 301 301 300 300 300 301 301 299 295 289 282 277 274 273 274 274 275 274 274 273 273 272 272 272 271 271 271 270 270 269 268 266 265 264 263 261 261 261
311 309 308 307 306 305 304 303 303 303 304 306 307 307 307 308 309 309 309 310 311 310 309 305 304 304 303 302 302 303 305 307 307 305 302 301 300 300 301 302 301 298 296 296 298 301 302 302 303 303 303 303 304 304 303 301 296 289 281 275 273 272 273 274 274 274 274 273 272 272 271 271 271 272 273 273 273 272 271 269 268 266 264 263 262 261
310 309 308 307 305 304 303 303 303 304 306 308 309 309 309 310 311 311 311 312 311 309 307 304 302 300 299 298 298 299 301 304 306 305 304 300 297 297 299 300 297 294 292 294 297 300 301 302 302 303 304 304 305 305 304 301 296 289 282 277 274 273 273 273 273 273 273 272 272 271 270 271 273 275 277 278 278 276 274 272 270 268 266 265 263 262
305 304 304 304 303 302 302 302 302 303 304 305 305 305 306 307 308 309 309 309 306 303 300 298 295 294 294 294 295 297 300 303 306 306 302 296 294 295 296 296 294 292 292 294 297 299 299 300 300 301 302 303 304 303 302 299 295 289 285 281 279 278 277 276 275 274 273 272 271 270 270 273 276 281 283 284 283 281 278 276 273 271 270 268 266 265
303 303 302 301 300 298 297 296 295 295 295 293 293 293 293 293 293 293 294 294 293 291 290 290 290 291 293 294 296 298 301 303 305 303 299 294 292 292 293 293 293 292 292 293 295 297 297 297 297 299 300 300 301 301 300 297 293 290 287 286 286 285 285 283 282 279 277 275 273 273 273 277 281 286 288 288 287 284 281 279 277 275 273 272 270 268
302 301 299 298 297 295 293 291 289 289 288 287 286 285 285 284 283 282 283 284 285 286 288 290 292 293 294 295 296 296 297 298 299 298 296 293 291 291 290 291 291 291 290 291 293 294 295 294 295 296 297 298 299 299 299 296 292 289 288 288 288 289 289 288 286 284 282 280 278 278 278 281 284 287 288 288 286 284 282 280 278 276 274 272 271 269
300 299 299 299 298 298 296 295 294 293 292 291 290 289 288 287 286 286 286 287 289 291 293 295 295 295 294 294 293 292 293 294 293 292 291 290 289 288 288 289 289 288 288 290 291 292 293 292 293 294 295 296 298 299 298 295 292 289 287 287 288 288 288 287 286 284 283 282 280 279 279 281 284 286 287 286 285 282 280 277 275 274 273 272 271 270
300 301 302 302 303 302 301 301 300 299 298 298 297 296 295 294 293 292 292 293 294 295 296 296 295 294 294 294 293 293 293 293 291 288 287 286 284 284 286 288 288 288 289 291 292 291 290 289 289 290 292 295 298 298 297 295 292 290 288 288 287 287 286 285 283 282 281 280 279 278 278 280 282 285 286 285 283 281 278 275 273 272 273 274 274 272
305 306 306 306 306 305 304 303 303 302 302 301 300 299 298 297 295 294 293 294 295 294 293 293 293 293 294 294 294 294 295 295 296 298 297 290 283 282 287 290 291 291 291 292 292 290 287 286 287 289 292 295 297 297 296 295 293 292 290 288 287 286 284 282 280 279 278 278 278 278 279 281 283 285 286 285 283 280 277 274 272 272 273 274 274 274
310 310 309 308 307 307 306 306 306 305 305 304 304 303 302 300 297 294 293 294 293 292 291 291 292 292 293 294 296 297 298 299 305 311 309 297 287 285 290 292 292 292 292 293 292 290 288 287 289 291 293 294 294 293 292 292 291 290 288 287 285 284 282 280 279 278 279 279 280 281 282 284 285 286 286 284 283 280 278 275 273 272 272 273 273 274
314 313 312 311 311 311 311 311 310 310 310 309 309 308 306 304 301 299 297 296 293 292 292 292 292 292 294 296 298 299 298 299 303 305 301 294 290 290 291 290 289 290 292 294 295 294 292 290 289 290 290 290 289 288 287 286 285 285 285 285 284 283 282 282 281 281 282 282 282 283 284 285 285 285 284 283 282 280 279 278 276 274 273 272 273 273
317 317 316 316 316 316 316 315 315 315 314 313 313 312 310 308 305 303 301 299 297 294 293 292 291 291 292 295 297 296 292 290 291 292 291 288 288 288 289 289 289 289 291 294 298 299 297 294 291 290 289 288 287 285 285 285 285 285 285 286 286 286 286 286 286 286 286 286 285 285 285 285 285 284 283 281 280 280 279 279 277 275 274 273 274 274
319 319 320 320 320 319 319 318 317 316 316 315 314 312 311 309 307 305 303 303 302 299 296 294 293 293 293 293 292 290 290 293 297 297 290 285 285 287 288 289 291 292 292 292 294 296 295 294 293 292 291 290 288 288 288 288 289 289 289 289 289 290 291 292 292 291 291 291 291 290 289 288 288 286 285 283 281 280 279 279 277 276 275 275 275 276
320 321 321 320 320 319 319 318 317 316 315 315 314 313 311 309 307 304 302 301 299 297 296 295 294 294 294 293 292 290 291 293 293 289 283 283 287 290 290 291 292 294 293 292 291 290 289 289 291 292 292 292 291 291 291 291 291 291 291 290 290 291 293 294 294 294 294 294 294 293 292 291 290 289 287 285 283 282 280 279 277 276 275 275 275 276
320 320 320 319 318 317 317 316 316 316 317 317 317 316 315 312 309 306 302 298 294 291 289 289 290 290 290 291 289 287 284 282 280 278 279 282 286 288 288 289 291 291 292 292 291 290 288 288 289 291 292 292 292 291 291 290 290 290 290 289 289 290 291 292 292 292 292 292 291 290 290 289 288 287 286 285 283 282 281 280 279 277 276 275 275 275
319 318 318 317 317 317 318 319 320 321 322 323 322 321 319 316 313 309 305 301 297 293 289 286 285 285 285 285 284 283 282 283 284 285 284 285 286 286 287 288 289 289 290 291 290 290 289 288 288 290 291 292 292 291 289 289 289 289 289 288 287 287 287 287 287 287 287 286 285 285 284 284 284 283 282 282 281 281 281 281 280 279 277 275 273 272
317 317 318 319 321 323 325 326 327 328 328 328 326 323 320 317 314 311 308 306 302 299 296 293 290 287 285 284 284 284 285 288 290 289 288 287 287 288 288 288 288 289 289 289 288 288 288 288 289 289 289 289 290 290 290 290 290 289 288 287 286 285 285 284 284 283 283 283 282 282 282 282 282 281 281 281 281 281 281 281 280 279 277 274 271 269
317 319 322 325 328 330 331 331 331 331 330 329 326 323 320 318 315 313 311 309 307 304 302 299 297 294 292 289 287 287 288 290 290 290 289 288 288 288 288 288 288 288 287 287 286 286 287 288 288 289 288 287 287 288 290 291 291 290 288 287 287 287 287 287 286 286 285 285 285 286 286 286 285 284 283 283 283 283 283 282 280 278 276 273 270 268
324 327 330 332 333 333 332 332 331 330 329 327 325 322 320 318 316 314 313 311 310 308 306 304 302 300 297 294 292 291 291 291 292 291 291 290 289 289 289 289 289 288 286 286 287 287 287 286 286 287 287 286 286 286 288 290 290 290 290 290 290 290 289 290 290 290 290 290 290 291 291 290 289 288 287 287 287 286 285 283 281 278 275 273 271 268
332 333 335 335 334 333 331 330 330 329 328 327 325 323 321 319 318 317 316 315 314 313 311 309 306 304 301 299 297 296 295 295 296 296 295 294 292 291 290 290 289 288 288 289 291 292 289 286 284 284 284 285 286 287 287 287 287 288 290 291 291 291 290 291 291 291 291 290 290 290 290 290 290 289 288 288 288 287 286 285 282 280 277 275 273 271
335 335 335 334 333 332 331 331 330 330 329 328 326 325 324 323 322 321 320 319 318 317 316 314 311 309 307 305 304 303 303 303 303 303 302 300 298 296 293 292 290 289 289 290 290 289 287 284 282 281 281 282 283 285 286 286 286 287 289 290 290 289 289 289 289 288 288 288 287 288 288 289 290 289 288 288 288 287 287 286 285 282 280 278 277 275
335 335 335 334 333 334 334 333 332 331 330 330 329 328 328 327 327 326 324 322 321 320 319 318 316 314 311 310 310 310 310 309 309 309 308 306 304 302 299 296 293 290 287 284 281 279 278 278 279 279 279 280 281 283 284 284 285 286 287 287 287 287 288 288 287 287 287 287 288 289 289 290 290 290 289 289 288 288 288 287 286 285 283 280 279 278
335 335 334 334 334 335 334 333 333 332 332 331 330 330 330 330 329 327 325 323 323 322 323 322 320 318 315 314 313 313 313 313 313 313 312 311 310 308 304 301 297 293 289 285 281 279 277 278 278 279 279 280 282 283 284 285 285 286 286 285 286 288 290 290 289 288 287 287 289 289 289 288 288 288 288 288 287 287 287 286 285 284 282 281 280 278
336 335 335 335 336 336 335 334 334 334 333 332 330 329 329 330 329 327 325 324 323 323 323 323 321 320 319 318 317 318 318 318 318 317 316 315 313 311 308 305 302 299 295 291 288 286 284 283 282 281 281 283 283 284 284 285 286 287 286 285 286 287 287 288 289 289 287 287 287 287 287 286 286 286 286 286 285 285 284 283 281 280 279 278 278 277
336 336 336 337 336 335 335 334 334 334 333 330 328 328 329 330 329 328 326 324 323 324 324 324 323 322 321 319 320 321 321 321 320 318 317 316 315 314 312 309 306 303 299 295 291 290 290 288 286 285 284 285 284 283 283 284 285 286 286 286 285 283 282 284 288 289 288 287 287 287 286 286 285 285 285 285 284 283 281 279 278 277 277 276 276 275
337 337 336 336 336 334 333 333 333 333 331 329 328 328 329 330 330 328 326 325 324 324 325 325 323 321 318 317 318 320 321 321 321 320 319 319 318 317 315 313 310 307 304 299 295 292 291 289 288 288 288 287 286 284 283 284 285 286 287 287 286 285 284 286 287 288 286 287 288 288 288 288 287 285 284 283 283 282 281 279 278 277 276 276 275 274
337 336 335 335 334 333 333 333 333 332 331 329 329 329 330 330 330 329 327 326 325 324 324 323 320 316 313 314 315 317 319 320 321 322 322 322 321 320 319 317 315 312 309 305 301 297 294 292 291 292 292 290 288 286 285 284 284 286 287 289 289 288 287 287 287 287 287 287 288 289 291 290 288 284 281 281 281 281 281 280 278 277 277 277 276 275
335 335 334 334 334 334 334 334 333 333 331 331 330 329 330 330 330 329 327 325 324 323 322 321 319 315 312 313 313 314 315 316 319 321 322 323 324 323 322 320 318 316 314 311 308 305 302 299 297 296 294 292 289 288 288 288 287 286 288 290 290 289 288 288 289 289 289 288 288 290 293 291 286 282 281 281 281 280 280 279 278 277 277 277 277 277
334 334 334 335 335 335 335 334 333 333 332 331 330 329 329 330 329 327 325 324 323 322 321 320 318 316 314 314 314 313 313 313 315 318 322 324 325 325 324 323 321 320 317 315 313 310 308 306 303 300 297 292 289 289 291 292 292 290 290 291 290 288 287 289 290 291 291 290 291 293 293 290 285 283 283 282 281 280 280 279 278 277 276 276 276 276
334 334 335 335 335 336 335 334 333 332 332 331 331 329 329 330 328 326 324 324 323 323 321 320 318 316 315 315 315 315 314 314 315 318 321 323 324 324 324 324 323 322 320 318 316 314 312 310 307 304 301 296 291 290 292 295 296 296 294 292 290 288 287 290 292 293 292 292 294 295 295 292 290 288 286 283 282 282 282 281 280 278 276 275 275 275
335 335 335 335 335 335 334 333 333 332 331 331 331 330 329 329 328 327 326 325 324 324 323 321 319 317 315 315 316 316 316 315 315 317 320 322 323 322 322 322 322 322 320 319 317 315 313 310 308 305 302 298 294 293 293 295 298 298 296 293 291 290 289 290 292 294 294 294 295 295 295 294 293 292 288 284 283 283 284 284 282 281 278 277 276 275
335 335 335 334 334 333 333 332 332 332 331 331 331 331 330 329 328 328 328 328 327 326 325 323 320 317 315 315 315 316 316 315 315 316 319 321 321 320 319 321 321 320 318 316 315 313 310 308 306 304 302 299 297 296 294 295 296 296 294 294 293 292 291 291 292 294 294 294 294 294 293 292 291 289 287 284 283 283 283 283 283 282 281 279 278 277
Height
1457 1456 1456 1456 1456 1455 1454 1454 1454 1453 1452 1451 1451 1451 1450 1449 1448 1448 1447 1446 1446 1445 1445 1444 1444 1444 1443 1443 1443 1442 1441 1441 1440 1440 1439 1438 1437 1437 1436 1436 1435 1435 1435 1435 1435 1435 1435 1435 1435 1434 1434 1434 1434 1434 1435 1434 1434 1434 1434 1434 1433 1434 1434 1435 1435 1436 1436 1438 1439 1439 1439 1438 1438 1438 1438 1438 1438 1438 1438 1438 1437 1437 1437 1438 1438 1440
1455 1454 1454 1453 1453 1453 1451 1451 1451 1451 1450 1449 1449 1449 1448 1447 1446 1446 1446 1445 1444 1443 1443 1442 1441 1441 1441 1440 1440 1439 1439 1439 1438 1437 1437 1436 1435 1435 1434 1433 1433 1432 1432 1432 1431 1431 1431 1431 1431 1431 1431 1431 1431 1431 1431 1431 1431 1431 1431 1431 1431 1431 1431 1431 1432 1432 1434 1435 1436 1436 1436 1436 1435 1435 1435 1435 1435 1436 1436 1435 1435 1434 1434 1435 1436 1436
1452 1452 1451 1451 1451 1451 1449 1449 1449 1449 1448 1447 1446 1446 1446 1445 1444 1444 1443 1443 1442 1441 1441 1440 1439 1438 1438 1437 1437 1436 1436 1436 1436 1435 1434 1434 1433 1432 1431 1431 1431 1430 1429 1429 1429 1428 1428 1428 1428 1428 1428 1428 1428 1428 1428 1428 1428 1428 1427 1428 1428 1428 1429 1429 1430 1431 1432 1433 1433 1433 1433 1432 1432 1432 1432 1432 1432 1432 1433 1432 1432 1431 1431 1432 1432 1433
1451 1450 1448 1448 1448 1448 1447 1447 1446 1446 1446 1445 1445 1444 1444 1443 1442 1441 1441 1441 1440 1439 1438 1438 1437 1436 1435 1435 1434 1434 1433 1433 1433 1432 1432 1431 1431 1430 1429 1429 1428 1427 1427 1427 1426 1426 1426 1426 1425 1425 1425 1425 1425 1425 1425 1425 1425 1425 1425 1425 1426 1426 1427 1427 1428 1429 1429 1430 1430 1429 1429 1429 1429 1429 1429 1429 1429 1429 1430 1430 1429 1429 1429 1429 1429 1430
1449 1448 1446 1446 1446 1446 1445 1445 1444 1443 1443 1442 1442 1441 1441 1441 1440 1439 1439 1438 1438 1437 1436 1436 1435 1434 1433 1432 1432 1431 1431 1430 1430 1430 1429 1429 1428 1428 1427 1427 1426 1426 1426 1425 1425 1424 1424 1423 1423 1423 1423 1423 1422 1422 1423 1423 1423 1422 1422 1422 1423 1424 1424 1425 1425 1426 1426 1426 1426 1426 1426 1426 1426 1425 1425 1426 1426 1426 1426 1426 1426 1426 1426 1426 1426 1426
1447 1446 1445 1445 1444 1443 1443 1442 1442 1441 1441 1440 1439 1439 1439 1438 1437 1437 1436 1435 1435 1434 1433 1433 1432 1432 1431 1430 1430 1429 1428 1428 1427 1427 1427 1426 1426 1425 1425 1424 1424 1424 1423 1423 1423 1422 1422 1422 1421 1421 1421 1421 1421 1421 1421 1421 1421 1420 1420 1420 1421 1421 1421 1422 1422 1422 1423 1423 1423 1423 1422 1422 1422 1422 1421 1422 1422 1423 1423 1424 1424 1423 1423 1423 1423 1423
1445 1444 1444 1443 1442 1441 1441 1440 1440 1439 1439 1437 1436 1436 1436 1436 1435 1434 1433 1433 1432 1431 1430 1430 1429 1429 1428 1428 1427 1426 1426 1425 1425 1425 1424 1424 1424 1423 1422 1422 1421 1421 1421 1420 1420 1420 1419 1419 1419 1419 1418 1418 1418 1418 1418 1418 1418 1418 1418 1417 1418 1418 1419 1419 1419 1419 1420 1420 1419 1419 1419 1419 1419 1418 1418 1418 1419 1420 1420 1421 1421 1421 1420 1420 1420 1420
1443 1442 1442 1441 1441 1439 1439 1438 1438 1437 1437 1436 1434 1433 1432 1432 1432 1431 1431 1430 1429 1428 1427 1426 1426 1426 1426 1425 1424 1424 1423 1422 1422 1422 1421 1421 1421 1421 1420 1420 1419 1419 1418 1418 1417 1417 1416 1416 1416 1416 1416 1416 1416 1416 1416 1416 1415 1415 1415 1415 1415 1415 1416 1416 1416 1416 1416 1416 1416 1416 1416 1416 1416 1415 1415 1415 1416 1416 1417 1417 1417 1417 1417 1417 1417 1417
1442 1441 1440 1440 1439 1438 1436 1436 1436 1436 1435 1434 1433 1431 1430 1429 1428 1428 1427 1427 1426 1425 1424 1423 1422 1422 1422 1421 1421 1421 1420 1420 1419 1419 1419 1418 1418 1418 1417 1417 1416 1416 1416 1415 1415 1414 1414 1414 1413 1413 1413 1413 1413 1413 1412 1412 1412 1412 1412 1412 1412 1412 1412 1412 1413 1413 1413 1413 1413 1412 1412 1412 1412 1412 1412 1412 1413 1413 1414 1414 1414 1414 1414 1414 1414 1414
1441 1440 1439 1438 1437 1437 1436 1434 1433 1433 1433 1432 1431 1430 1429 1428 1426 1424 1424 1423 1423 1422 1422 1421 1420 1418 1418 1418 1418 1418 1417 1416 1416 1416 1416 1416 1415 1415 1414 1414 1413 1413 1412 1412 1411 1411 1411 1411 1411 1410 1410 1410 1410 1410 1409 1409 1409 1409 1408 1408 1408 1409 1409 1409 1409 1409 1409 1409 1409 1409 1409 1409 1409 1409 1409 1409 1410 1410 1410 1411 1411 1411 1411 1411 1411 1411
1439 1438 1437 1436 1435 1435 1434 1433 1431 1431 1431 1430 1429 1428 1428 1427 1425 1423 1421 1419 1419 1419 1419 1418 1417 1416 1415 1414 1414 1414 1414 1413 1413 1413 1413 1413 1412 1412 1411 1411 1410 1410 1409 1409 1408 1408 1408 1408 1407 1407 1407 1407 1407 1406 1406 1406 1406 1406 1405 1405 1405 1405 1405 1405 1405 1405 1405 1405 1405 1405 1405 1405 1405 1406 1406 1406 1406 1407 1407 1407 1407 1407 1408 1408 1408 1408
1437 1436 1436 1435 1434 1433 1432 1431 1430 1430 1429 1428 1427 1426 1425 1425 1424 1423 1420 1418 1416 1416 1416 1415 1415 1414 1414 1412 1411 1411 1411 1411 1410 1410 1410 1410 1410 1409 1409 1408 1407 1407 1406 1406 1406 1405 1405 1405 1405 1404 1404 1404 1404 1403 1403 1403 1402 1402 1402 1401 1401 1401 1401 1401 1401 1401 1401 1401 1401 1401 1401 1402 1402 1402 1402 1403 1403 1403 1404 1404 1404 1404 1405 1405 1405 1405
1436 1435 1434 1433 1432 1432 1431 1430 1429 1428 1427 1427 1426 1425 1424 1423 1422 1421 1420 1418 1416 1415 1414 1413 1412 1411 1411 1411 1410 1409 1409 1408 1407 1407 1407 1407 1406 1406 1406 1405 1405 1404 1404 1403 1403 1403 1403 1402 1402 1402 1401 1401 1401 1401 1400 1400 1399 1399 1399 1398 1398 1398 1398 1398 1398 1397 1397 1397 1397 1398 1398 1398 1398 1399 1399 1399 1400 1400 1400 1401 1401 1401 1401 1401 1401 1401
1435 1434 1433 1432 1431 1431 1430 1429 1428 1427 1426 1426 1426 1424 1423 1422 1421 1420 1419 1417 1416 1415 1414 1412 1410 1409 1409 1409 1409 1408 1407 1406 1405 1405 1405 1404 1404 1404 1403 1402 1401 1401 1401 1401 1400 1400 1401 1400 1400 1399 1399 1399 1398 1398 1398 1397 1396 1396 1396 1395 1395 1395 1394 1394 1394 1394 1394 1394 1394 1394 1394 1395 1395 1395 1396 1396 1396 1396 1396 1397 1397 1398 1398 1398 1398 1398
1434 1433 1432 1431 1430 1430 1429 1428 1427 1426 1426 1425 1425 1424 1422 1421 1421 1420 1418 1416 1414 1413 1412 1411 1409 1408 1408 1407 1407 1407 1406 1405 1404 1403 1402 1401 1401 1402 1401 1400 1399 1399 1399 1398 1398 1397 1398 1398 1397 1397 1396 1396 1396 1396 1395 1394 1394 1393 1393 1392 1392 1391 1391 1391 1391 1390 1390 1390 1390 1390 1391 1391 1391 1392 1392 1392 1392 1393 1393 1393 1394 1394 1395 1395 1395 1395
1434 1433 1432 1431 1430 1429 1428 1428 1427 1426 1425 1424 1424 1423 1422 1421 1419 1419 1418 1416 1414 1412 1411 1409 1407 1406 1405 1406 1406 1406 1406 1404 1403 1401 1400 1399 1399 1399 1400 1398 1396 1396 1396 1396 1395 1395 1396 1396 1395 1395 1394 1394 1394 1393 1393 1392 1391 1391 1390 1390 1389 1389 1388 1388 1387 1387 1387 1387 1387 1387 1387 1388 1388 1388 1389 1389 1389 1389 1390 1390 1390 1391 1391 1391 1391 1391
1433 1432 1431 1431 1429 1428 1427 1427 1426 1425 1424 1423 1423 1422 1421 1420 1419 1418 1417 1415 1414 1412 1411 1410 1408 1406 1403 1403 1404 1405 1405 1404 1402 1400 1399 1397 1396 1397 1398 1396 1394 1393 1393 1393 1393 1393 1393 1393 1393 1392 1392 1392 1391 1391 1391 1390 1389 1388 1387 1387 1386 1386 1385 1385 1385 1384 1384 1384 1384 1384 1384 1384 1385 1385 1385 1385 1386 1386 1386 1386 1387 1387 1387 1388 1388 1388
1433 1432 1431 1430 1429 1428 1427 1426 1425 1424 1423 1422 1421 1421 1420 1419 1418 1417 1416 1415 1413 1412 1410 1409 1408 1406 1404 1402 1401 1402 1404 1403 1401 1398 1397 1395 1394 1394 1395 1395 1393 1391 1391 1390 1390 1391 1391 1390 1390 1390 1390 1389 1389 1389 1388 1387 1387 1386 1385 1384 1384 1383 1383 1382 1382 1382 1381 1381 1381 1381 1381 1381 1381 1382 1382 1382 1382 1382 1383 1383 1383 1384 1384 1384 1385 1385
1432 1431 1430 1429 1428 1427 1426 1425 1424 1424 1423 1421 1421 1419 1418 1417 1417 1416 1415 1414 1413 1411 1410 1408 1406 1405 1404 1402 1400 1400 1402 1402 1400 1397 1396 1393 1391 1391 1393 1392 1391 1389 1388 1388 1388 1388 1388 1388 1387 1387 1387 1387 1386 1386 1386 1385 1384 1383 1382 1382 1381 1381 1380 1380 1379 1379 1379 1379 1379 1379 1379 1379 1379 1379 1379 1379 1379 1379 1379 1380 1380 1380 1380 1381 1381 1381
1430 1430 1429 1428 1427 1426 1425 1424 1424 1423 1422 1421 1420 1419 1417 1416 1415 1414 1413 1412 1411 1410 1408 1407 1405 1403 1402 1401 1399 1399 1400 1400 1398 1396 1394 1392 1390 1389 1391 1391 1389 1387 1386 1386 1386 1386 1386 1385 1384 1384 1384 1384 1383 1383 1382 1382 1381 1381 1380 1379 1379 1378 1378 1377 1377 1376 1376 1376 1376 1376 1376 1376 1376 1376 1376 1376 1376 1376 1376 1376 1376 1376 1377 1377 1377 1377
1429 1428 1427 1427 1426 1425 1423 1422 1422 1422 1421 1420 1419 1417 1416 1415 1413 1412 1411 1410 1409 1407 1406 1405 1403 1401 1401 1400 1398 1397 1399 1399 1397 1394 1392 1390 1388 1387 1388 1388 1387 1385 1384 1383 1383 1383 1383 1382 1381 1381 1381 1380 1380 1380 1379 1379 1378 1377 1377 1376 1376 1376 1375 1375 1374 1374 1374 1374 1374 1374 1374 1374 1374 1374 1374 1374 1374 1373 1373 1373 1373 1373 1373 1374 1374 1374
1428 1426 1426 1426 1425 1424 1422 1421 1420 1420 1420 1419 1418 1416 1415 1414 1412 1411 1409 1408 1407 1406 1404 1403 1402 1400 1399 1398 1396 1396 1397 1397 1396 1393 1391 1388 1385 1385 1386 1386 1385 1383 1382 1381 1381 1381 1381 1380 1379 1378 1378 1377 1377 1377 1376 1376 1375 1375 1374 1374 1373 1373 1373 1372 1372 1372 1372 1372 1372 1372 1372 1372 1372 1372 1372 1371 1371 1371 1371 1370 1370 1370 1370 1370 1371 1371
1426 1425 1424 1423 1423 1422 1421 1420 1419 1418 1418 1418 1417 1416 1414 1413 1411 1410 1408 1407 1406 1404 1403 1401 1400 1398 1397 1396 1394 1393 1394 1395 1394 1392 1391 1387 1384 1384 1385 1385 1384 1381 1380 1379 1379 1378 1378 1377 1376 1376 1375 1375 1374 1374 1374 1373 1373 1372 1372 1371 1371 1371 1370 1370 1370 1370 1370 1370 1370 1370 1370 1370 1370 1370 1369 1369 1369 1368 1368 1368 1367 1367 1367 1367 1367 1367
1425 1423 1422 1421 1421 1420 1419 1418 1417 1417 1416 1416 1415 1413 1412 1411 1410 1408 1407 1406 1404 1402 1401 1399 1397 1396 1394 1394 1393 1392 1391 1392 1392 1391 1389 1386 1384 1383 1383 1383 1382 1380 1377 1377 1377 1377 1375 1374 1374 1373 1372 1372 1371 1371 1371 1371 1371 1370 1370 1369 1369 1369 1368 1368 1368 1368 1367 1367 1367 1367 1367 1367 1367 1367 1367 1366 1366 1366 1366 1365 1365 1365 1365 1365 1365 1365
1422 1421 1421 1420 1419 1418 1417 1416 1416 1415 1414 1413 1412 1411 1409 1408 1407 1405 1404 1403 1402 1400 1399 1397 1396 1394 1392 1392 1391 1391 1391 1391 1391 1390 1388 1386 1383 1381 1381 1381 1381 1378 1375 1375 1376 1375 1373 1371 1371 1371 1370 1369 1369 1369 1369 1368 1368 1368 1367 1367 1367 1366 1366 1366 1366 1366 1366 1365 1365 1365 1365 1365 1365 1365 1365 1364 1364 1363 1363 1363 1363 1363 1362 1362 1362 1362
1421 1420 1419 1417 1417 1416 1415 1414 1413 1412 1411 1411 1409 1408 1406 1405 1404 1402 1401 1400 1400 1398 1397 1396 1394 1392 1391 1390 1389 1389 1388 1389 1390 1389 1387 1385 1381 1379 1379 1380 1379 1376 1373 1373 1374 1373 1371 1369 1368 1368 1367 1366 1366 1366 1366 1366 1365 1365 1365 1365 1364 1364 1364 1364 1364 1363 1363 1363 1363 1363 1363 1363 1362 1362 1362 1362 1361 1361 1361 1361 1361 1361 1360 1360 1359 1359
1419 1418 1417 1416 1415 1414 1413 1411 1411 1410 1409 1408 1407 1406 1404 1403 1401 1400 1399 1398 1397 1396 1395 1394 1392 1390 1388 1388 1387 1386 1386 1386 1387 1387 1386 1384 1380 1377 1376 1377 1376 1374 1372 1371 1371 1371 1369 1367 1366 1366 1365 1364 1364 1364 1363 1363 1363 1362 1362 1362 1362 1361 1361 1361 1361 1361 1361 1361 1361 1361 1361 1360 1360 1360 1359 1359 1359 1359 1358 1358 1358 1358 1358 1357 1356 1356
1416 1416 1415 1413 1412 1411 1410 1409 1408 1407 1406 1405 1405 1404 1402 1401 1399 1397 1396 1396 1396 1395 1394 1393 1391 1389 1387 1386 1385 1384 1384 1384 1384 1383 1383 1381 1378 1376 1375 1375 1374 1373 1372 1370 1368 1367 1366 1365 1364 1363 1362 1362 1361 1361 1361 1361 1360 1360 1360 1359 1359 1359 1359 1359 1358 1358 1358 1358 1358 1358 1358 1357 1357 1357 1356 1356 1356 1356 1356 1356 1356 1355 1355 1354 1353 1352
1414 1413 1412 1411 1410 1409 1407 1406 1406 1405 1404 1403 1402 1401 1400 1399 1397 1396 1395 1394 1394 1393 1391 1391 1390 1388 1386 1385 1383 1382 1382 1381 1381 1381 1381 1380 1377 1375 1374 1374 1373 1372 1371 1369 1366 1363 1363 1362 1361 1361 1360 1360 1360 1359 1359 1358 1358 1357 1357 1357 1356 1356 1356 1356 1356 1356 1355 1355 1355 1355 1355 1354 1354 1354 1354 1353 1353 1353 1353 1353 1353 1352 1352 1351 1351 1350
1411 1410 1409 1408 1407 1406 1405 1404 1403 1402 1401 1400 1399 1399 1398 1397 1396 1395 1393 1393 1392 1391 1390 1389 1388 1387 1386 1384 1382 1381 1380 1381 1381 1381 1380 1378 1376 1374 1373 1373 1371 1371 1371 1368 1364 1361 1359 1360 1360 1359 1359 1358 1358 1358 1357 1356 1356 1355 1355 1354 1353 1353 1353 1352 1352 1352 1352 1352 1352 1351 1351 1351 1351 1351 1351 1351 1350 1350 1350 1350 1350 1350 1349 1348 1348 1347
1408 1407 1406 1406 1405 1404 1402 1401 1401 1400 1399 1398 1397 1396 1396 1395 1394 1393 1392 1391 1391 1390 1389 1388 1387 1386 1385 1384 1382 1380 1378 1378 1379 1380 1379 1377 1375 1373 1372 1371 1370 1369 1369 1368 1365 1361 1357 1356 1356 1357 1357 1356 1356 1355 1354 1354 1353 1352 1352 1351 1350 1349 1349 1349 1349 1348 1348 1348 1348 1348 1347 1347 1347 1347 1347 1347 1347 1347 1347 1347 1347 1347 1346 1346 1345 1345
1406 1405 1404 1403 1402 1401 1401 1400 1399 1398 1397 1396 1396 1395 1394 1393 1392 1392 1391 1390 1389 1389 1388 1387 1386 1385 1384 1383 1381 1379 1376 1375 1376 1377 1377 1375 1373 1371 1370 1369 1368 1367 1367 1367 1366 1363 1359 1355 1353 1353 1354 1353 1353 1352 1351 1350 1350 1349 1349 1348 1346 1345 1345 1345 1345 1344 1344 1344 1344 1344 1344 1344 1344 1344 1344 1344 1344 1344 1345 1345 1345 1345 1344 1343 1343 1342
1405 1404 1403 1402 1401 1400 1399 1398 1397 1396 1395 1395 1394 1393 1392 1392 1391 1390 1390 1389 1388 1387 1386 1386 1384 1383 1381 1381 1379 1377 1376 1375 1376 1376 1375 1373 1371 1369 1368 1367 1366 1365 1365 1364 1364 1362 1360 1356 1352 1351 1350 1350 1349 1349 1348 1347 1346 1346 1346 1345 1344 1342 1342 1342 1342 1341 1341 1341 1340 1340 1340 1340 1340 1340 1341 1341 1341 1341 1341 1341 1342 1342 1342 1341 1340 1339
1403 1402 1401 1400 1399 1398 1397 1396 1396 1395 1394 1393 1392 1391 1390 1390 1389 1388 1388 1387 1386 1386 1385 1384 1383 1382 1380 1379 1377 1375 1374 1373 1374 1374 1373 1372 1370 1368 1366 1366 1365 1364 1363 1362 1361 1360 1358 1355 1353 1351 1348 1346 1346 1346 1346 1345 1344 1344 1343 1343 1341 1341 1340 1340 1340 1339 1338 1338 1338 1337 1337 1337 1337 1337 1337 1337 1337 1337 1337 1338 1338 1338 1338 1338 1337 1337
1402 1401 1400 1399 1398 1396 1396 1395 1394 1393 1392 1391 1390 1389 1388 1387 1387 1386 1385 1385 1384 1383 1382 1382 1381 1380 1379 1377 1375 1372 1370 1369 1370 1371 1371 1370 1369 1366 1365 1363 1363 1362 1361 1360 1359 1358 1356 1353 1351 1350 1348 1344 1342 1342 1343 1342 1342 1341 1341 1341 1340 1339 1338 1338 1338 1337 1336 1336 1335 1335 1334 1334 1334 1334 1334 1334 1334 1334 1334 1334 1334 1334 1334 1334 1334 1334
1401 1400 1398 1397 1396 1395 1394 1393 1392 1391 1390 1389 1388 1387 1386 1385 1384 1383 1383 1382 1381 1380 1380 1379 1378 1377 1376 1375 1373 1371 1368 1367 1367 1368 1368 1367 1366 1365 1363 1361 1360 1360 1360 1358 1357 1356 1354 1351 1349 1348 1347 1344 1341 1339 1339 1339 1339 1339 1338 1338 1337 1336 1336 1336 1336 1335 1334 1333 1332 1331 1331 1331 1331 1331 1330 1330 1330 1330 1330 1330 1330 1330 1330 1330 1330 1330
1399 1398 1397 1396 1395 1393 1392 1391 1390 1389 1388 1387 1386 1386 1385 1384 1382 1381 1381 1380 1379 1378 1377 1376 1375 1374 1373 1372 1371 1369 1367 1366 1365 1365 1365 1365 1364 1363 1361 1359 1358 1358 1358 1356 1355 1354 1352 1350 1347 1345 1344 1342 1340 1337 1336 1336 1336 1336 1335 1334 1334 1333 1332 1332 1332 1332 1331 1330 1329 1328 1328 1327 1327 1327 1326 1326 1326 1326 1326 1326 1326 1326 1326 1326 1326 1326
1398 1397 1396 1395 1394 1392 1391 1390 1389 1388 1387 1386 1385 1384 1383 1382 1381 1380 1379 1378 1377 1376 1375 1374 1373 1371 1371 1370 1368 1367 1365 1364 1363 1363 1363 1362 1361 1361 1359 1357 1356 1355 1355 1354 1353 1352 1350 1348 1346 1343 1341 1339 1337 1336 1335 1334 1333 1332 1331 1331 1330 1330 1329 1328 1328 1328 1327 1326 1325 1325 1324 1324 1323 1323 1323 1323 1322 1322 1322 1321 1321 1322 1322 1322 1322 1322
1397 1396 1395 1394 1393 1391 1391 1389 1388 1387 1386 1385 1384 1383 1381 1380 1379 1378 1377 1376 1375 1374 1373 1372 1370 1369 1368 1367 1366 1365 1364 1362 1362 1361 1361 1360 1359 1358 1357 1356 1354 1352 1352 1352 1351 1350 1348 1346 1344 1342 1339 1336 1334 1333 1332 1332 1331 1330 1329 1328 1327 1326 1326 1326 1326 1325 1324 1323 1322 1321 1321 1320 1320 1320 1319 1319 1319 1318 1318 1317 1317 1318 1318 1318 1318 1318
1396 1395 1394 1393 1392 1391 1390 1388 1387 1386 1385 1383 1382 1381 1380 1378 1377 1376 1375 1374 1373 1372 1371 1369 1368 1367 1366 1365 1364 1362 1361 1361 1360 1359 1358 1358 1357 1356 1355 1354 1352 1351 1350 1350 1349 1348 1347 1345 1342 1340 1338 1336 1333 1331 1330 1329 1329 1329 1328 1327 1325 1323 1323 1323 1323 1323 1322 1321 1320 1319 1318 1317 1316 1316 1315 1315 1315 1314 1314 1314 1314 1314 1315 1315 1315 1314
1396 1394 1393 1392 1391 1390 1389 1387 1386 1385 1383 1382 1381 1379 1378 1377 1375 1374 1373 1371 1371 1369 1368 1367 1366 1364 1363 1362 1361 1361 1360 1359 1358 1357 1356 1355 1355 1354 1353 1351 1350 1349 1348 1347 1346 1345 1344 1342 1341 1338 1336 1335 1332 1330 1328 1327 1327 1327 1328 1326 1323 1321 1320 1320 1320 1320 1319 1318 1317 1316 1316 1315 1314 1313 1312 1312 1311 1311 1311 1311 1311 1311 1311 1311 1311 1311
1395 1394 1392 1391 1390 1389 1387 1386 1385 1383 1382 1381 1379 1378 1377 1376 1374 1373 1371 1370 1368 1367 1366 1365 1364 1362 1361 1360 1359 1359 1358 1357 1356 1355 1354 1353 1352 1351 1351 1350 1348 1347 1346 1345 1343 1341 1341 1340 1338 1336 1335 1333 1331 1329 1326 1325 1324 1325 1325 1324 1321 1319 1317 1316 1316 1317 1317 1315 1314 1314 1313 1312 1311 1310 1309 1309 1308 1308 1308 1308 1308 1308 1308 1308 1308 1308
1394 1393 1391 1390 1389 1388 1386 1385 1384 1382 1381 1380 1378 1377 1376 1375 1373 1372 1370 1368 1367 1366 1365 1364 1362 1361 1359 1357 1356 1356 1355 1355 1354 1353 1352 1351 1350 1349 1348 1347 1346 1346 1344 1343 1341 1339 1338 1337 1336 1334 1332 1332 1331 1328 1325 1323 1322 1322 1322 1321 1321 1319 1316 1313 1312 1314 1314 1313 1312 1311 1311 1310 1309 1308 1307 1306 1306 1305 1305 1305 1305 1305 1305 1305 1305 1305
1393 1392 1391 1389 1388 1387 1386 1384 1383 1381 1380 1379 1377 1376 1375 1374 1373 1371 1370 1368 1366 1365 1364 1362 1361 1359 1358 1356 1354 1353 1352 1352 1352 1351 1350 1349 1348 1347 1346 1345 1344 1343 1342 1341 1340 1337 1336 1334 1333 1331 1331 1330 1329 1326 1324 1321 1320 1319 1318 1318 1318 1317 1314 1311 1311 1311 1311 1310 1309 1309 1308 1307 1307 1306 1304 1303 1303 1302 1302 1302 1302 1302 1302 1302 1302 1302
1392 1391 1390 1388 1387 1386 1384 1383 1382 1381 1379 1378 1376 1375 1374 1373 1372 1370 1369 1367 1365 1364 1363 1361 1360 1359 1356 1354 1353 1351 1350 1349 1349 1348 1348 1347 1346 1346 1344 1343 1342 1341 1340 1339 1338 1336 1334 1332 1330 1329 1328 1327 1326 1324 1322 1320 1318 1316 1315 1315 1314 1313 1311 1309 1309 1308 1308 1307 1306 1306 1305 1305 1305 1304 1302 1301 1300 1299 1299 1299 1299 1298 1298 1299 1299 1299
1391 1390 1389 1387 1386 1385 1384 1382 1381 1380 1378 1376 1375 1374 1373 1371 1370 1369 1368 1366 1365 1363 1362 1361 1360 1358 1356 1354 1352 1350 1348 1347 1346 1346 1345 1345 1344 1343 1342 1341 1340 1339 1338 1336 1335 1334 1332 1331 1329 1327 1326 1325 1323 1321 1319 1318 1316 1314 1312 1311 1311 1310 1308 1307 1306 1306 1305 1304 1303 1302 1302 1302 1302 1301 1300 1298 1297 1296 1296 1296 1296 1295 1295 1295 1295 1295
1391 1389 1388 1386 1385 1384 1382 1381 1380 1378 1377 1375 1374 1373 1371 1371 1369 1368 1366 1365 1364 1363 1361 1360 1359 1357 1355 1353 1351 1350 1348 1346 1344 1343 1342 1342 1341 1341 1340 1338 1337 1336 1335 1334 1332 1331 1329 1328 1327 1326 1324 1322 1320 1317 1316 1315 1314 1312 1310 1309 1308 1307 1305 1304 1303 1303 1303 1302 1301 1300 1300 1300 1300 1299 1297 1296 1294 1293 1293 1292 1292 1292 1292 1292 1292 1292
1390 1388 1387 1385 1384 1382 1381 1380 1379 1377 1376 1374 1373 1371 1371 1370 1368 1367 1365 1364 1363 1362 1360 1359 1357 1356 1354 1352 1350 1349 1347 1346 1343 1341 1340 1339 1339 1338 1337 1336 1334 1333 1332 1330 1329 1327 1326 1325 1323 1323 1322 1321 1318 1316 1313 1312 1311 1310 1308 1307 1306 1304 1302 1301 1300 1300 1300 1299 1299 1298 1298 1298 1297 1296 1295 1294 1292 1291 1290 1289 1289 1289 1289 1289 1289 1289
1389 1387 1386 1384 1383 1381 1380 1379 1377 1376 1375 1373 1371 1370 1369 1368 1367 1366 1365 1363 1362 1361 1359 1357 1356 1354 1352 1350 1348 1347 1346 1344 1342 1340 1339 1338 1336 1336 1334 1333 1332 1330 1329 1327 1326 1324 1322 1321 1319 1319 1318 1318 1316 1314 1311 1310 1308 1307 1306 1305 1303 1302 1300 1299 1298 1297 1297 1296 1296 1296 1296 1295 1294 1294 1293 1292 1290 1288 1286 1286 1286 1286 1286 1286 1286 1286
1388 1386 1385 1383 1382 1380 1379 1378 1376 1375 1373 1372 1371 1369 1368 1366 1366 1365 1363 1362 1361 1359 1358 1356 1354 1352 1351 1348 1347 1346 1344 1342 1341 1339 1337 1336 1335 1334 1332 1331 1330 1328 1326 1325 1323 1321 1320 1317 1316 1315 1314 1315 1314 1312 1310 1308 1306 1305 1304 1302 1301 1300 1299 1297 1296 1295 1295 1294 1294 1293 1293 1292 1291 1291 1291 1290 1287 1285 1284 1282 1282 1281 1282 1282 1283 1282
1386 1385 1384 1382 1381 1379 1378 1377 1375 1374 1372 1371 1370 1368 1366 1365 1364 1363 1362 1361 1359 1358 1356 1355 1353 1351 1349 1347 1345 1344 1343 1341 1339 1337 1336 1335 1334 1333 1331 1330 1329 1327 1325 1323 1321 1319 1318 1316 1313 1311 1311 1312 1312 1311 1309 1307 1305 1303 1302 1300 1299 1298 1297 1296 1294 1293 1293 1292 1291 1291 1290 1290 1289 1288 1288 1287 1286 1283 1281 1279 1278 1277 1278 1279 1279 1279